"Pseudo-MPEC" for C0PPEV1

Created 2019 Nov 1 17:07:03 UT using Find_Orb

Click here for an explanation of pseudo-MPECs

 
 Astrometry: 
     C0PPEV1  C2019 10 31.28274 02 50 51.01 +20 32 02.2    ~AV7b 19.9 GVNEOCP703
     C0PPEV1  C2019 10 31.28797 02 50 31.07 +20 31 14.3    ~AV7b 19.1 GVNEOCP703
     C0PPEV1  C2019 10 31.29321 02 50 10.01 +20 30 20.4    ~AV7b 19.4 GVNEOCP703
     C0PPEV1  C2019 10 31.29845 02 49 48.77 +20 29 24.4    ~AV7b 18.5 GVNEOCP703
     C0PPEV1  C2019 10 31.32873 02 47 29.45 +20 22 37.2    ~AV87 18.5 GVNEOCPI52
     C0PPEV1  C2019 10 31.32920 02 47 27.07 +20 22 29.2    ~AV87 18.4 GVNEOCPI52
     C0PPEV1  C2019 10 31.32969 02 47 24.58 +20 22 21.9    ~AV87 18.7 GVNEOCPI52
     C0PPEV1  C2019 10 31.33017 02 47 22.11 +20 22 14.1    ~AV87 18.2 GVNEOCPI52
     C0PPEV1  C2019 10 31.34216302 45 59.09 +20 16 03.8    ~AV8q 18.4 GVNEOCPH01
     C0PPEV1  C2019 10 31.34542902 45 40.69 +20 14 58.5    ~AV8q 18.5 GVNEOCPH01
     C0PPEV1  C2019 10 31.35704902 44 31.87 +20 10 46.3    ~AV8q 18.2 GVNEOCPH01
     C0PPEV1  C2019 10 31.36279602 43 55.74 +20 08 29.1    ~AV8q 18.7 GVNEOCPH01
     C0PPEV1 |C2019 10 31C!k#wXx)Bs4bAstrometryntKredacted;@qYt]v#NNh:O'aC$h(H06
     C0PPEV1 |C2019 10 31:Cvy1^H,cB[!PrRS!B;click/#hereV,for(explanationrtd2OH06
     C0PPEV1  C2019 10 31.41192602 37 36.78 +19 41 38.3    ~AVAb 18.2 GVNEOCPH01
     C0PPEV1  C2019 10 31.41974702 36 21.81 +19 35 47.3    ~AVAb 17.5 GVNEOCPH01
     C0PPEV1  C2019 10 31.43157802 34 18.31 +19 25 49.3    ~AVAb 17.5 GVNEOCPH01
     C0PPEV1  C2019 10 31.43558102 33 33.46 +19 22 06.3    ~AVAb 17.3 GVNEOCPH01

Station data:
(703) Catalina Sky Survey  (N32.417006 W110.732640)  US/Arizona.  Observers
   T. A. Pruyne, B. M. Africano, E. J. Christensen, G. A. Farneth, D. C.
   Fuls, A. R. Gibbs, A. D. Grauer, H. Groeller, J. A. Johnson, R. A.
   Kowalski, S. M. Larson, G. J. Leonard, D. Rankin, R. L. Seaman, F. C.
   Shelly. 0.68 m Schmidt + 10K CCD.
(H01) Magdalena Ridge Observatory, Socorro  (N33.984833 W107.189333)  US/New
   Mexico.  Observers W. H. Ryan, E. V. Ryan. Measurer W. H. Ryan. 2.4-m
   f/8.9 reflector + CCD.
(H06) RAS Observatory, Mayhill  (N32.903325 W105.528700)  US/New
   Mexico.  Observers E. Guido, G. Sostero, V. Gonano, L. Donato.
(I52) Steward Observatory, Mt. Lemmon Station  (N32.442547 W110.788920)
   US/Arizona.  Observers T. A. Pruyne, B. M. Africano, E. J. Christensen, G.
   A. Farneth, D. C. Fuls, A. R. Gibbs, A. D. Grauer, H. Groeller, J. A.
   Johnson, R. A. Kowalski, S. M. Larson, G. J. Leonard, D. Rankin, R. L.
   Seaman, F. C. Shelly. 1.0-m reflector + CCD.

Orbital elements:  C0PPEV1
   Perigee 2019 Oct 31.615088 +/- 0.000162 TT = 14:45:43 (JD 2458788.115088)
Epoch 2019 Oct 31.0 TT = JDT 2458787.5                        AutoNEOCP
q 12627.0868 +/- 55.5               (J2000 equator)
H   32.2  G 0.15                    Peri.  224.35894 +/- 0.08
                                    Node   168.87800 +/- 0.048
e   4.2159917 +/- 0.0244            Incl.  154.74542 +/- 0.0024
From 18 observations 2019 Oct. 31 (3.7 hr); mean residual 1".03
Residuals in arcseconds: 
191031 703  1.7+  1.7-    191031 I52  .31-  .48+    191031 H06  1.9+  .24-    
191031 703  2.0+  .30+    191031 I52  .42-  .39+    191031 H06  1.4+  .17+    
191031 703  2.9-  .36-    191031 H01  .51-  .14+    191031 H01  .08+  .28+    
191031 703  .04-  .32+    191031 H01  .44-  .20+    191031 H01  .42-  .04+    
191031 I52  .73-  .49+    191031 H01  .11+  .41+    191031 H01  1.9-  .55-    
191031 I52  .52-  .05-    191031 H01  .08+  .40+    191031 H01  2.5-  .90-    

Ephemerides (geocentric):
Date (UTC) HH   RA              Dec         delta   r     elong  mag " sig PA
---- -- -- --  -------------   -----------  ------ ------ -----  --- ---- ---
2019 11 01 17  13 16 39.906   -13 21 54.82  967055 .98635  16.7 33??  592 111
2019 11 01 18  13 16 32.022   -13 21 08.93  .00671 .98611  16.8 33??  592 111
2019 11 01 19  13 16 24.693   -13 20 26.22  .00695 .98587  16.8 33??  592 111
2019 11 01 20  13 16 17.861   -13 19 46.38  .00719 .98563  16.9 33??  592 111
2019 11 01 21  13 16 11.478   -13 19 09.11  .00744 .98538  17.0 33??  591 111
2019 11 01 22  13 16 05.502   -13 18 34.18  .00768 .98514  17.0 33??  591 111
2019 11 01 23  13 15 59.895   -13 18 01.37  .00792 .98490  17.1 33??  591 111
2019 11 02 00  13 15 54.623   -13 17 30.49  .00817 .98466  17.2 33??  591 111
2019 11 02 01  13 15 49.660   -13 17 01.38  .00841 .98442  17.2 33??  591 111
2019 11 02 02  13 15 44.977   -13 16 33.89  .00865 .98418  17.3 33??  591 111
2019 11 02 03  13 15 40.553   -13 16 07.88  .00890 .98394  17.3 33??  591 111
2019 11 02 04  13 15 36.367   -13 15 43.24  .00914 .98370  17.4 33??  590 111
2019 11 02 05  13 15 32.401   -13 15 19.86  .00938 .98346  17.4 33??  590 111
2019 11 02 06  13 15 28.638   -13 14 57.65  .00963 .98322  17.5 33??  590 111
2019 11 02 07  13 15 25.063   -13 14 36.51  .00987 .98298  17.6 34??  590 111
2019 11 02 08  13 15 21.663   -13 14 16.38  .01011 .98274  17.6 34??  590 111
2019 11 02 09  13 15 18.425   -13 13 57.19  .01036 .98250  17.7 34??  590 111
2019 11 02 10  13 15 15.340   -13 13 38.86  .01060 .98226  17.7 34??  590 111
2019 11 02 11  13 15 12.396   -13 13 21.34  .01084 .98202  17.8 34??  590 111
2019 11 02 12  13 15 09.584   -13 13 04.59  .01109 .98178  17.8 34??  590 111
2019 11 02 13  13 15 06.897   -13 12 48.54  .01133 .98154  17.9 34??  590 111
2019 11 02 14  13 15 04.326   -13 12 33.16  .01157 .98131  17.9 34??  589 111
2019 11 02 15  13 15 01.864   -13 12 18.40  .01182 .98107  18.0 34??  589 111
2019 11 02 16  13 14 59.505   -13 12 04.23  .01206 .98083  18.0 34??  589 111
2019 11 02 17  13 14 57.243   -13 11 50.61  .01230 .98059  18.1 34??  589 111
2019 11 02 18  13 14 55.073   -13 11 37.51  .01254 .98035  18.1 34??  589 111
2019 11 02 19  13 14 52.989   -13 11 24.91  .01279 .98011  18.2 34??  589 111
2019 11 02 20  13 14 50.987   -13 11 12.77  .01303 .97987  18.2 34??  589 111
2019 11 02 21  13 14 49.062   -13 11 01.07  .01327 .97964  18.3 34??  589 111
2019 11 02 22  13 14 47.210   -13 10 49.78  .01352 .97940  18.3 34??  589 111
2019 11 02 23  13 14 45.428   -13 10 38.89  .01376 .97916  18.4 34??  589 111
2019 11 03 00  13 14 43.712   -13 10 28.37  .01400 .97892  18.4 34??  589 111
2019 11 03 01  13 14 42.058   -13 10 18.21  .01425 .97869  18.5 34??  589 111
2019 11 03 02  13 14 40.465   -13 10 08.38  .01449 .97845  18.5 34??  589 111
2019 11 03 03  13 14 38.929   -13 09 58.88  .01473 .97821  18.6 34??  589 111
2019 11 03 04  13 14 37.446   -13 09 49.68  .01498 .97797  18.6 34??  589 111
2019 11 03 05  13 14 36.016   -13 09 40.78  .01522 .97774  18.6 34??  589 111
2019 11 03 06  13 14 34.635   -13 09 32.15  .01546 .97750  18.7 34??  589 111
2019 11 03 07  13 14 33.302   -13 09 23.79  .01571 .97726  18.7 34??  588 111
2019 11 03 08  13 14 32.014   -13 09 15.68  .01595 .97703  18.8 34??  588 111
2019 11 03 09  13 14 30.769   -13 09 07.82  .01619 .97679  18.8 34??  588 111
2019 11 03 10  13 14 29.566   -13 09 00.18  .01644 .97655  18.9 34??  588 111
2019 11 03 11  13 14 28.403   -13 08 52.77  .01668 .97632  18.9 34??  588 111
2019 11 03 12  13 14 27.278   -13 08 45.57  .01692 .97608  19.0 34??  588 111
2019 11 03 13  13 14 26.190   -13 08 38.58  .01716 .97584  19.0 34??  588 111
2019 11 03 14  13 14 25.138   -13 08 31.78  .01741 .97561  19.1 34??  588 111
2019 11 03 15  13 14 24.119   -13 08 25.17  .01765 .97537  19.1 34??  588 111
2019 11 03 16  13 14 23.133   -13 08 18.74  .01789 .97514  19.1 34??  588 111